星链-3839 (STARLINK-3839 )

导读 | 豆包AI

STARLINK-3839是美国SpaceX公司于2022年5月6日发射的星链系列卫星,隶属于星链全球低轨卫星互联网星座项目。作为早期星链卫星,单星重量约260公斤,采用紧凑设计适配猎鹰9号一箭多星发射,旨在为全球偏远、基础设施匮乏区域提供高速低延迟宽带互联网服务,助力实现全球全域网络覆盖目标。

Basic Information
目录编号:
52480
目录名称:
STARLINK-3839
国际标识:
2022-049AF
轨道中心:
EARTH
卫星名称:
星链-3839
卫星全名:
星链-3839 (STARLINK-3839 )
卫星状态:
在轨 (已飞行1455 天)
发射日期:
2022-05-06 UTC
国别 :
美国 (US)
星等 :
--
Orbit Information
数据来源 国际轨道数据 AOE轨道数据
星历时间 2026-04-30T21:27:00+0800
7小时前
查看轨道信息
2026-04-30T08:00:00+0800
20小时前
查看轨道信息
半长轴 6917.879km 6917.904km
偏心率 0.0001158 0.0001653
轨道倾角 53.217° 53.218°
近地点辐角 87.297° 47.673°
升交点赤经 186.262° 188.779°
平近点角 272.815° 146.647°
近地点 538.94km 538.623km
远地点 540.544km 540.911km
周期 95.438分钟 95.438分钟
每日圈数 15.088406 15.088326
Detailed Information
固有亮度:
5
最大亮度:
2.5
卫星平台:
Starlink v1.5
覆盖范围:
全球
运营商:
太空探索技术公司
运营商所在国:
美国
制造商(研发单位):
太空探索技术公司
制造商所在国:
美国
使用方式:
暂无
Satellite Introduction
星链(Starlink)计划是由太空探索技术公司(SpaceX)提出的一个巨型低轨卫星互联网星座项目,计划在2019年至2024年间在太空搭建由约1.2万颗卫星组成的“星链”网络,其中1584颗将部署在地球上空550千米处的近地轨道,并从2020年开始工作。该卫星仍在工作。
2D Orbit Map
3D Orbit Map
Orbit Altitude Analysis Chart
Orbit Inclination Analysis Chart
Orbit Comprehensive Analysis Chart
View Comprehensive Chart